Weather in Portoroz

Slovenia     45°30′50″N   13°35′34″E
temp.,
°C
wind,
m/s
gust,
m/s
humid.,
%
clouds,
%
prec.,
mm/h
press.,
hPa
HPBL,
m
19 january, wed
wed1901:00+7ene22690 0.0 1034180
04:00+6ene23680 0.0 1033183
07:00+6ene22660 0.0 1032190
10:00+6ne22620 0.0 1031222
13:00+7n22625 0.0 1029236
16:00+7nw11660 0.0 1027121
19:00+7sse01692 0.0 1026191
22:00+6sse227719 0.0 1026183
20 january, thu
thu2001:00+7ese228098 0.1 1024175
04:00+7ese1179100 0.1 1022188
07:00+7s1282100 0.1 1021217
10:00+8nne1180100 0.2 1021311
13:00+8nne118196 0.3 1019362
16:00+8nne218069 0.0 1017382
19:00+7n11777 0.0 1017416
22:00+7nne33755 0.0 1018509
21 january, fri
fri2101:00+7ne45745 0.0 1018403
04:00+6ene91068100 0.0 1019620
07:00+5ene10135592 0.0 1021905
10:00+5ene8104895 0.0 10241024
13:00+6ene99480 0.0 10251170
16:00+5ene66460 0.0 1025973
19:00+4e454895 0.0 1026392
22:00+4se21525 0.0 1026278
22 january, sat
sat2201:00+3ese22621 0.0 1026228
04:00+3e11635 0.0 1026213
07:00+3nne12614 0.0 1026485
10:00+4nnw01605 0.0 1026543
13:00+5wnw22605 0.0 1025601
16:00+5wsw12655 0.0 1024579
19:00+5e116657 0.0 1025377
22:00+4e22695 0.0 1027237
23 january, sun
sun2301:00+4ese22635 0.0 1027186
04:00+4se22635 0.0 1028224
07:00+3se226674 0.0 1028222
10:00+4ese116398 0.0 1029276
13:00+5ssw016499 0.0 1028383
16:00+5se116898 0.0 1027261
19:00+5e21716 0.0 1027253
22:00+5ene22735 0.0 1028275